Regional Weather Roundup
Issued by NWS

Home | Current Version | Previous Version | Graphics & Text | Print | Product List | Glossary On
Versions: 1 2 3 4 5 6 7 8 9 10 11 12 13 14 15 16 17 18 19 20 21 22 23 24 25 26 27 28 29 30 31 32 33 34 35 36 37 38 39 40 41 42 43 44 45 46 47 48 49 50
023
ASUS43 KDMX 282106
RWRIA

WEATHER ROUNDUP FOR IOWA
NATIONAL WEATHER SERVICE DES MOINES IA
400 PM CDT SUN MAY 28 2017

NOTE: "FAIR" INDICATES FEW OR NO CLOUDS BELOW 12,000 FEET WITH NO
SIGNIFICANT WEATHER AND/OR OBSTRUCTIONS TO VISIBILITY.

* - THESE STATIONS ARE NOT NWS STATIONS...THUS NOT UNDER NWS
QUALITY CONTROL.  THEY ALSO DO NOT REPORT WEATHER SUCH
AS PRECIPITATION OR FOG.

IAZ001>003-012>014-020>022-031>034-043>046-282200-
   NORTHWEST IOWA

CITY           SKY/WX    TMP DP  RH WIND       PRES   REMARKS
CARROLL *      MOSUNNY   81  41  24 NW23G32   29.84S
CHEROKEE *     PTSUNNY   73  42  32 NW13G24   29.86S
DENISON *      SUNNY     77  41  27 NW18G29   29.89R
LE MARS *      MOSUNNY   75  43  31 NW20G29   29.89S
ORANGE CITY *  SUNNY     73  45  35 NW25G31   29.88S
SHELDON *      MOSUNNY   75  39  27 NW18G30   29.84F
SIOUX CITY     SUNNY     75  46  35 NW23G32   29.89R
SPENCER        MOSUNNY   74  42  31 NW18G32   29.84S
STORM LAKE *     N/A     75  41  29 NW22G32   29.85S
$$

IAZ055>058-069>071-079>083-090>094-282200-
   SOUTHWEST IOWA

CITY           SKY/WX    TMP DP  RH WIND       PRES   REMARKS
ATLANTIC *     MOSUNNY   77  46  33 NW20G25   29.85F
AUDUBON *      SUNNY     79  39  24 NW15G24   29.87R
CLARINDA *     MOSUNNY   77  50  38 W13G22    29.90F
COUNCIL BLFS * SUNNY     81  45  28 NW20G25   29.88R
CRESTON *      PTSUNNY   77  48  36 W17G28    29.89S
HARLAN  *      MOSUNNY   79  43  27 NW26G36   29.90R
LAMONI         SUNNY     79  47  32 W17G29    29.88F
RED OAK *      MOSUNNY   81  48  32 W14       29.87F HX  80
SHENANDOAH *   MOSUNNY   81  48  32 W12G18    29.89F HX  80
$$

IAZ047>049-059>061-072>074-084-282200-
   CENTRAL IOWA

CITY           SKY/WX    TMP DP  RH WIND       PRES   REMARKS
AMES           MOSUNNY   78  46  32 NW18G26   29.80F
ANKENY *       PTSUNNY   77  48  36 NW14G26   29.83S
BOONE *        MOSUNNY   77 -33   1 NW15G25   29.81S
CHARITON *     MOSUNNY   77  46  33 NW16G24   29.85S
DES MOINES     PTSUNNY   80  47  31 W15       29.81F
GRINNELL*      MOSUNNY   76  50  39 W15G23    29.83F
KNOXVILLE *    MOSUNNY   79  45  29 W18G28    29.82F
MARSHALLTOWN   PTSUNNY   76  49  38 W14G20    29.79F
NEWTON *       MOSUNNY   75  48  38 W14       29.81F
PELLA *        SUNNY     79  44  29 W14G21    29.84F
PERRY *        PTSUNNY   78  40  25 W22G31    29.83S
$$

IAZ004>006-015-016-023>025-035-036-282200-
   NORTH CENTRAL IOWA

CITY           SKY/WX    TMP DP  RH WIND       PRES   REMARKS
ALGONA *       MOSUNNY   75  41  29 NW20G29   29.82S
CLARION *      MOSUNNY   79  37  22 W20G31    29.80F
ESTHERVILLE    PTSUNNY   71  41  33 NW22G36   29.82F
FORT DODGE *   MOSUNNY   75  45  33 NW13G20   29.82S
MASON CITY     MOSUNNY   74  42  31 NW21G30   29.80F
FOREST CITY *    N/A     73  27  17 NW22      29.80S
WEBSTER CITY * MOSUNNY   79  37  22 NW21G28   29.79S
IOWA FALLS *     N/A     78  43  28 W15G25    29.81F
$$

IAZ007>011-017>019-026>030-037>042-050>054-066-282200-
   NORTHEAST IOWA

CITY           SKY/WX    TMP DP  RH WIND       PRES   REMARKS
CEDAR RAPIDS   MOSUNNY   76  49  38 NW22G31   29.79S
CHARLES CITY * MOSUNNY   75  37  25 NW20G30   29.79S
CLINTON *      MOSUNNY   76  54  46 NW18      29.77S
DECORAH *      MOSUNNY   73  41  31 NW17G28   29.75F
DUBUQUE        SUNNY     75  46  35 NW20G26   29.77R
MONTICELLO *   MOSUNNY   77  45  31 W21G28    29.76S
OELWEIN *      MOSUNNY   77  41  27 NW23G32   29.78S
WATERLOO       PTSUNNY   76  43  30 NW15G21   29.77F
$$

IAZ064-065-067-068-078-282200-
   EAST CENTRAL IOWA

CITY           SKY/WX    TMP DP  RH WIND       PRES   REMARKS
DAVENPORT      MOSUNNY   76  51  41 W21G28    29.78S
IOWA CITY      SUNNY     79  47  32 W17G28    29.80F
MT. PLEASANT * MOSUNNY   78  44  30 W13G25    29.82R
MUSCATINE *    SUNNY     79  46  31 W20       29.80S
QUAD CITIES    PTSUNNY   79  55  43 NW17      29.77S
$$

IAZ062-063-075>077-085>089-095>099-282200-
   SOUTHEAST IOWA

CITY           SKY/WX    TMP DP  RH WIND       PRES   REMARKS
BURLINGTON     MOSUNNY   79  53  40 W13G21    29.80S
FAIRFIELD *    SUNNY     77  45  31 NW14G26   29.82S
FORT MADISON * MOSUNNY   79  52  38 W12G20    29.82S
KEOKUK *       MOSUNNY   77  52  41 W13G20    29.81S
OSKALOOSA *      N/A     80  42  26 NW20G25   29.83S
CENTERVILLE *    N/A     77  43  29 W13       29.87S
OTTUMWA        SUNNY     78  46  32 NW17G25   29.81F
WASHINGTON *   SUNNY     79  46  31 NW15G21   29.82S
$$

ABBREVIATIONS USED IN REMARKS
   TC - TEMPERATURES IN CELSIUS
  WCI - WIND CHILL INDEX
   HX - HEAT INDEX
  VSB - VISIBILITY
$$





USA.gov is the U.S. government's official web portal to all federal, state and local government web resources and services.